Wind_Speed
10 10 10 9 8 7 7 7 6 7 7 5 5 5 6 7 8 7 7 8 8 9 9 9 9 9 9 9 8 7 6 6 6 6 5 5 5 5 5 5 5 5 5
10 10 10 10 9 7 7 7 7 7 7 6 5 5 5 5 7 7 7 8 9 9 9 10 10 9 9 9 9 7 7 6 6 5 5 5 5 6 6 5 5 5 5
11 10 9 9 8 7 7 7 7 7 7 6 6 6 6 6 6 7 7 8 9 9 10 10 10 10 9 9 9 8 7 6 6 5 6 6 6 6 6 6 6 7 6
12 11 10 9 9 8 8 8 7 7 7 7 7 7 6 6 6 6 7 8 9 10 10 10 10 9 9 9 9 8 8 7 6 6 6 6 6 6 6 7 7 7 7
12 11 11 10 10 9 8 8 8 8 8 7 7 7 6 6 6 6 6 7 8 9 9 9 9 10 9 9 9 9 8 7 7 7 7 7 7 6 6 7 7 7 7
13 12 12 11 10 10 10 9 8 8 8 8 8 8 7 6 7 7 6 7 8 9 9 9 10 10 10 9 9 9 9 8 8 8 8 8 7 6 7 7 7 7 8
13 12 12 11 11 10 10 9 8 8 8 8 8 8 7 7 7 7 6 6 7 8 9 10 10 10 10 10 10 9 10 9 8 8 9 9 8 8 8 8 8 9 9
13 12 12 11 11 10 10 9 9 8 8 8 8 8 7 7 6 6 6 7 7 7 8 9 9 10 11 11 10 9 9 9 8 9 10 10 9 9 9 9 9 9 9
14 13 12 11 11 11 10 9 9 8 8 8 8 8 8 7 6 6 6 6 6 6 7 7 9 9 10 10 10 11 10 9 9 9 9 9 9 9 9 10 10 11 10
14 13 12 11 11 11 10 10 9 9 9 9 8 8 8 8 8 8 7 7 6 6 6 7 8 8 9 9 9 8 9 9 8 9 8 8 9 10 9 10 10 11 12
13 12 12 11 11 11 11 10 10 9 10 9 8 8 7 8 8 9 8 8 7 7 7 7 8 8 9 9 9 9 9 9 9 9 9 9 10 10 10 10 10 11 12
14 13 12 12 12 12 11 11 11 10 10 10 9 9 9 8 9 9 9 9 8 8 8 9 9 9 9 10 10 10 9 9 9 9 10 10 10 11 11 11 11 11 12
15 13 13 13 13 13 12 11 11 10 10 10 10 10 10 10 10 10 11 10 10 10 10 10 11 11 11 11 11 10 10 11 11 11 11 12 12 12 12 12 12 12 12
16 15 15 15 14 13 12 12 12 12 12 12 11 11 11 11 12 12 12 12 12 11 12 12 13 13 13 13 13 13 12 13 13 13 14 14 13 14 13 13 13 13 13
17 16 16 16 14 13 13 13 13 13 12 13 13 13 13 13 14 14 14 14 14 13 13 13 13 14 14 14 15 15 15 15 16 16 16 16 16 15 14 14 14 14 15
18 17 16 15 15 15 15 15 14 14 13 14 15 15 15 16 16 15 14 14 14 14 14 14 15 15 15 15 16 17 17 17 17 17 17 17 17 16 16 15 15 15 15
19 18 17 17 16 16 16 16 15 15 15 15 15 15 16 16 16 16 16 16 16 15 15 15 15 16 17 17 17 17 17 17 17 18 18 17 17 17 17 17 16 16 16
18 18 17 17 17 17 17 17 16 16 16 16 16 16 16 17 17 17 17 17 17 17 16 16 16 16 17 17 17 18 18 19 19 18 18 18 19 18 18 18 18 18 18
19 19 18 18 18 18 18 18 18 18 17 17 17 17 17 17 17 17 17 18 18 18 18 18 18 18 18 18 18 19 19 19 19 19 20 20 20 20 19 19 19 19 19
18 19 19 19 19 19 19 19 19 19 18 17 17 17 17 17 18 18 18 18 19 19 20 20 20 20 20 19 20 20 20 20 20 21 21 21 20 20 21 21 21 21 20
19 19 19 20 20 20 20 20 20 19 19 18 18 18 18 18 19 19 19 20 20 21 21 21 21 21 21 21 22 22 21 21 21 21 21 21 21 21 21 22 22 22 21
19 19 19 20 20 20 20 19 19 20 20 19 19 20 19 19 20 20 21 21 22 22 22 22 22 22 22 22 22 22 22 22 22 22 22 22 23 23 22 22 22 23 23
19 18 19 19 18 19 19 20 20 20 20 21 21 21 21 21 21 21 22 22 22 23 23 23 23 22 22 23 23 24 24 24 23 23 23 23 23 23 23 22 23 23 24
18 18 18 18 18 19 20 20 20 20 21 21 21 22 22 22 22 23 23 23 24 24 24 24 24 23 23 23 24 24 24 24 25 25 25 24 23 23 23 23 24 24 24
18 18 19 19 19 19 20 20 21 21 22 22 23 22 23 23 23 24 24 25 26 26 26 26 25 25 25 25 25 25 25 25 25 25 26 25 25 24 24 24 24 25 25
20 20 20 20 21 20 21 21 21 21 22 22 22 23 23 24 24 24 24 25 26 26 26 26 26 26 26 26 26 26 26 26 26 26 25 26 26 26 25 24 25 26 26
Wind_Direction
320 322 321 314 316 307 303 302 292 284 282 281 268 263 253 240 230 226 228 235 231 226 225 227 227 230 232 232 231 232 231 242 246 249 261 264 257 260 262 273 274 266 267
315 319 317 316 319 320 309 307 305 293 287 286 283 276 270 256 241 235 231 235 234 229 227 228 229 233 233 233 234 236 237 241 243 254 260 267 268 274 271 266 271 271 271
310 312 314 315 313 314 313 311 301 295 295 286 285 282 273 267 253 239 239 239 238 234 229 229 231 235 235 236 234 237 238 240 246 257 267 272 271 271 275 268 267 267 268
306 305 306 306 308 309 308 304 298 295 292 287 283 278 272 267 256 242 243 244 240 231 226 228 230 234 236 236 232 234 239 242 250 260 268 275 274 272 277 273 268 263 263
302 299 301 302 303 306 306 302 297 292 289 284 282 278 275 268 257 244 245 249 243 229 223 225 227 230 235 236 233 236 241 246 248 261 266 272 276 278 280 277 272 265 260
301 298 298 298 301 305 304 303 301 293 289 285 284 278 275 269 262 255 248 246 241 231 226 225 227 229 231 236 236 239 244 247 250 255 264 270 275 279 281 279 268 263 259
304 299 298 296 297 300 302 299 302 299 292 288 288 284 277 268 260 257 251 244 245 239 231 228 228 227 230 234 238 244 246 252 252 254 263 266 267 270 275 276 270 265 262
304 300 294 291 292 292 293 295 299 298 294 286 285 282 275 261 247 252 250 252 248 240 228 225 227 228 230 233 235 244 249 253 257 259 261 266 265 266 271 273 272 268 266
301 300 297 292 289 287 288 289 293 292 286 283 282 279 271 267 253 242 246 253 255 246 228 224 227 230 231 235 238 244 250 249 253 254 261 269 267 264 268 271 273 270 268
295 293 291 293 294 287 282 282 288 285 281 283 282 279 275 271 267 253 241 250 255 253 246 236 230 231 235 239 243 248 254 251 258 263 268 269 269 266 270 270 272 269 268
290 288 286 289 293 288 279 277 280 278 278 278 275 276 272 272 270 263 253 252 251 248 244 240 238 239 242 246 250 253 253 254 262 269 274 277 280 275 277 275 275 271 270
288 284 282 284 285 286 282 277 276 274 275 275 272 273 272 266 266 266 261 252 250 249 246 241 239 244 248 248 253 258 260 265 265 268 273 276 278 278 279 278 278 275 273
283 279 279 278 278 279 281 281 275 272 271 271 270 275 272 266 266 266 265 261 260 257 254 252 253 254 257 258 261 262 265 269 272 275 274 274 273 274 277 278 277 276 273
279 276 274 274 273 275 277 279 279 272 268 269 268 270 267 267 265 264 265 266 263 261 260 259 256 259 262 263 265 268 268 269 272 275 277 277 275 273 274 275 275 272 272
281 275 272 271 272 275 275 273 274 276 273 268 267 267 266 266 267 265 264 265 266 266 267 264 263 262 263 264 265 268 269 270 271 273 276 275 275 277 277 277 276 273 272
280 276 276 275 275 274 273 273 273 275 277 274 271 271 267 266 266 266 265 266 265 263 263 264 265 264 265 264 264 265 268 270 271 271 273 273 274 276 278 278 277 277 275
279 276 273 273 272 272 271 270 270 271 273 273 271 271 268 266 264 264 263 264 265 264 264 264 267 265 265 264 267 267 268 269 271 271 272 273 272 274 275 276 276 275 275
279 275 272 271 269 270 271 269 268 269 271 271 270 269 270 267 265 266 265 264 263 264 265 266 268 269 267 267 269 268 267 268 270 272 273 274 273 273 275 275 274 272 272
278 274 271 270 269 268 269 267 269 270 271 272 272 271 271 269 265 265 264 262 262 264 266 266 266 268 269 271 272 270 270 270 270 271 272 273 274 273 274 274 273 272 271
278 273 270 268 269 269 268 269 270 270 272 272 273 274 272 272 270 269 267 265 264 265 266 266 267 269 269 270 272 271 271 271 270 270 271 272 274 273 271 270 270 271 269
277 275 271 269 269 269 269 268 268 268 270 270 271 273 273 273 273 271 270 269 268 267 268 269 269 271 270 269 271 271 270 270 271 272 271 272 273 273 273 270 269 268 267
278 275 273 270 269 268 268 267 266 267 268 269 270 272 273 274 274 272 271 270 269 270 270 269 268 270 271 270 269 269 269 270 271 272 273 273 274 273 270 269 269 268 267
283 278 276 273 269 268 268 268 267 267 268 268 270 272 272 273 275 274 272 271 270 271 272 271 268 270 271 272 270 269 270 271 272 272 272 274 274 273 270 269 270 270 269
284 281 277 273 268 267 267 268 269 268 269 269 271 272 272 272 274 276 276 275 274 273 273 273 270 270 272 273 272 271 271 270 271 273 274 273 273 273 270 270 270 270 270
282 280 279 276 273 270 269 270 269 269 269 269 270 271 272 274 275 276 276 275 274 273 273 272 270 270 272 273 273 271 271 271 271 272 273 272 272 273 273 271 270 271 271
281 282 282 278 275 273 272 271 269 269 269 269 270 271 272 274 275 276 277 275 273 272 272 273 271 270 270 270 270 271 270 271 271 269 270 271 271 272 272 272 270 270 271
Height
5867 5866 5865 5864 5864 5863 5862 5861 5861 5860 5860 5860 5860 5860 5860 5860 5860 5862 5863 5864 5865 5867 5869 5871 5873 5875 5876 5877 5879 5880 5881 5882 5882 5883 5883 5883 5883 5883 5884 5884 5884 5884 5885
5866 5865 5864 5863 5862 5862 5861 5860 5860 5860 5860 5859 5859 5859 5859 5859 5860 5861 5862 5863 5864 5866 5868 5869 5871 5873 5874 5876 5877 5878 5879 5880 5881 5881 5882 5882 5882 5882 5882 5883 5883 5883 5884
5864 5864 5863 5862 5861 5860 5860 5859 5859 5859 5858 5858 5858 5858 5858 5858 5858 5859 5860 5861 5863 5864 5866 5867 5869 5871 5872 5874 5875 5877 5878 5879 5880 5880 5880 5881 5881 5881 5881 5881 5882 5882 5882
5863 5862 5862 5861 5860 5859 5858 5858 5857 5857 5857 5857 5857 5857 5857 5857 5857 5858 5859 5860 5861 5862 5863 5865 5867 5869 5871 5872 5874 5875 5876 5877 5878 5879 5879 5879 5879 5879 5880 5880 5880 5880 5881
5861 5860 5860 5859 5858 5857 5856 5856 5856 5856 5855 5855 5855 5855 5855 5855 5856 5856 5857 5858 5859 5860 5862 5863 5865 5867 5869 5871 5872 5874 5875 5876 5877 5877 5877 5877 5877 5878 5878 5878 5878 5878 5879
5859 5858 5858 5857 5856 5856 5855 5855 5854 5854 5854 5854 5854 5853 5852 5853 5854 5855 5856 5856 5857 5858 5860 5862 5863 5865 5867 5869 5870 5872 5873 5874 5875 5875 5875 5876 5876 5876 5876 5876 5876 5876 5877
5856 5856 5855 5855 5855 5854 5854 5854 5853 5853 5853 5852 5852 5852 5851 5852 5853 5854 5854 5855 5855 5856 5858 5860 5861 5863 5865 5867 5868 5870 5871 5872 5872 5873 5873 5873 5874 5874 5874 5874 5874 5874 5875
5854 5853 5853 5853 5852 5852 5852 5852 5852 5852 5851 5851 5851 5851 5851 5851 5850 5852 5853 5854 5854 5855 5856 5857 5859 5861 5863 5865 5866 5868 5869 5870 5870 5870 5871 5871 5871 5871 5872 5872 5872 5872 5872
5851 5850 5850 5850 5850 5850 5850 5850 5850 5850 5850 5850 5850 5850 5850 5850 5849 5851 5852 5853 5853 5853 5854 5855 5857 5859 5861 5862 5864 5866 5866 5867 5868 5868 5868 5868 5868 5869 5869 5870 5870 5870 5870
5849 5848 5847 5847 5847 5848 5848 5848 5848 5848 5848 5848 5848 5848 5849 5849 5849 5849 5851 5852 5852 5853 5853 5855 5856 5858 5859 5861 5862 5863 5864 5865 5865 5866 5866 5866 5866 5867 5867 5867 5867 5867 5867
5846 5845 5845 5844 5845 5845 5846 5846 5846 5846 5846 5846 5847 5847 5847 5848 5848 5849 5850 5851 5852 5852 5853 5854 5855 5857 5858 5859 5860 5861 5862 5862 5863 5863 5864 5864 5864 5864 5864 5864 5864 5864 5864
5843 5843 5843 5843 5843 5843 5843 5843 5843 5844 5844 5845 5845 5845 5846 5846 5847 5848 5849 5849 5850 5851 5852 5853 5854 5855 5856 5857 5858 5859 5860 5860 5860 5861 5861 5861 5861 5861 5861 5861 5861 5861 5861
5840 5839 5839 5840 5840 5840 5840 5840 5841 5841 5841 5842 5843 5843 5843 5844 5845 5846 5847 5847 5848 5849 5850 5851 5852 5853 5854 5855 5856 5856 5857 5858 5858 5858 5858 5858 5858 5858 5858 5858 5857 5857 5857
5836 5836 5836 5836 5837 5837 5837 5837 5838 5838 5838 5839 5840 5840 5841 5841 5842 5843 5844 5845 5845 5846 5847 5848 5849 5850 5851 5852 5853 5853 5854 5854 5854 5855 5855 5855 5854 5854 5854 5854 5854 5854 5854
5832 5832 5832 5832 5833 5833 5834 5834 5834 5834 5835 5835 5836 5837 5838 5838 5839 5839 5840 5841 5843 5843 5844 5845 5846 5847 5848 5849 5849 5850 5850 5851 5851 5851 5851 5851 5851 5851 5850 5850 5850 5850 5850
5827 5828 5828 5828 5829 5829 5830 5830 5831 5831 5831 5832 5833 5833 5834 5834 5835 5836 5837 5837 5838 5840 5841 5841 5842 5843 5844 5845 5845 5845 5846 5846 5846 5847 5847 5847 5846 5846 5846 5846 5846 5846 5846
5823 5823 5823 5824 5824 5825 5825 5826 5826 5827 5828 5828 5829 5829 5830 5831 5831 5832 5833 5833 5834 5835 5836 5837 5838 5838 5839 5840 5840 5840 5840 5841 5842 5842 5842 5842 5842 5842 5842 5842 5842 5842 5842
5817 5818 5818 5819 5820 5820 5821 5821 5822 5823 5823 5824 5824 5825 5825 5826 5827 5828 5828 5829 5830 5831 5832 5833 5833 5834 5834 5835 5835 5836 5836 5836 5837 5837 5837 5837 5837 5837 5837 5837 5837 5837 5837
5812 5812 5813 5814 5815 5815 5816 5817 5817 5818 5819 5819 5820 5820 5821 5821 5822 5823 5823 5824 5825 5826 5827 5828 5829 5829 5829 5830 5830 5831 5831 5831 5831 5831 5831 5831 5831 5831 5832 5832 5832 5832 5832
5807 5807 5808 5809 5809 5810 5811 5811 5812 5813 5814 5814 5815 5815 5816 5816 5817 5817 5818 5819 5820 5821 5821 5822 5823 5823 5824 5824 5824 5825 5825 5825 5825 5825 5825 5825 5825 5826 5826 5826 5826 5826 5826
5802 5802 5802 5803 5804 5805 5805 5806 5807 5807 5808 5809 5810 5810 5811 5811 5812 5812 5813 5814 5814 5815 5815 5816 5817 5817 5817 5818 5818 5818 5819 5819 5819 5819 5819 5819 5820 5820 5819 5819 5820 5820 5820
5796 5796 5796 5797 5798 5799 5799 5800 5801 5802 5803 5804 5804 5805 5805 5806 5806 5807 5807 5808 5808 5809 5809 5810 5810 5811 5811 5811 5811 5812 5812 5813 5813 5814 5813 5813 5813 5813 5813 5813 5813 5813 5813
5791 5791 5791 5791 5792 5793 5793 5794 5795 5796 5797 5798 5799 5799 5800 5800 5800 5801 5801 5801 5802 5802 5803 5803 5803 5804 5804 5804 5804 5805 5805 5805 5806 5806 5806 5806 5806 5806 5806 5806 5806 5806 5806
5786 5785 5786 5786 5786 5787 5788 5788 5789 5790 5791 5792 5792 5793 5793 5794 5794 5794 5794 5794 5795 5795 5795 5796 5796 5797 5797 5797 5797 5798 5798 5798 5799 5799 5799 5799 5799 5799 5799 5799 5799 5799 5799
5781 5781 5781 5781 5781 5781 5782 5782 5783 5783 5784 5785 5786 5786 5787 5787 5787 5787 5787 5787 5787 5787 5787 5788 5789 5789 5789 5789 5789 5790 5790 5791 5791 5792 5791 5791 5792 5792 5792 5792 5792 5792 5792
5776 5776 5775 5775 5776 5776 5776 5776 5776 5777 5777 5778 5779 5779 5780 5780 5780 5780 5780 5780 5780 5780 5780 5781 5781 5781 5781 5782 5782 5782 5783 5783 5783 5783 5783 5783 5784 5784 5784 5785 5785 5784 5784